| time (UTC) | temp F | wind direction | speed MPH | gust MPH | rain 1hr in | rain 24hr in | rain mn in | humidity % | barometer mb |
| 20260502234219 | 74 | 221 | 0.0 | 0.0 | 0.00 | 0.00 | 0.00 | 94 | 976.7 |
| 20260502233714 | 74 | 224 | 0.0 | 0.0 | 0.00 | 0.00 | 0.00 | 95 | 976.7 |
| 20260502233211 | 73 | 222 | 0.0 | 0.0 | 0.00 | 0.00 | 0.00 | 96 | 976.3 |
| 20260502232707 | 73 | 222 | 0.0 | 0.0 | 0.00 | 0.00 | 0.00 | 96 | 976.4 |
| 20260502232205 | 72 | 224 | 0.0 | 0.0 | 0.00 | 0.00 | 0.00 | 97 | 976.4 |
| 20260502231701 | 72 | 224 | 0.0 | 0.0 | 0.00 | 0.00 | 0.00 | 96 | 976.3 |
| 20260502231159 | 72 | 224 | 0.0 | 0.0 | 0.00 | 0.00 | 0.00 | 96 | 976.3 |
| 20260502230657 | 72 | 224 | 0.0 | 0.0 | 0.00 | 0.00 | 0.00 | 96 | 976.1 |
| 20260502230155 | 72 | 224 | 0.0 | 0.0 | 0.00 | 0.00 | 0.00 | 96 | 975.9 |
| 20260502225650 | 72 | 224 | 0.0 | 0.0 | 0.00 | 0.00 | 0.00 | 96 | 976.1 |
| 20260502225149 | 72 | 224 | 0.0 | 0.0 | 0.00 | 0.00 | 0.00 | 96 | 976.1 |
| 20260502224644 | 72 | 224 | 0.0 | 0.0 | 0.00 | 0.00 | 0.00 | 96 | 976.1 |
| 20260502224141 | 72 | 224 | 0.0 | 0.0 | 0.00 | 0.00 | 0.00 | 96 | 975.9 |
| 20260502223639 | 72 | 224 | 0.0 | 0.0 | 0.00 | 0.00 | 0.00 | 95 | 975.7 |
| 20260502223137 | 72 | 224 | 0.0 | 0.0 | 0.00 | 0.00 | 0.00 | 95 | 976.0 |
| 20260502222634 | 72 | 224 | 0.0 | 0.0 | 0.00 | 0.00 | 0.00 | 95 | 975.8 |
| 20260502222125 | 73 | 225 | 0.0 | 0.0 | 0.00 | 0.00 | 0.00 | 95 | 975.8 |
| 20260502221620 | 73 | 225 | 0.0 | 0.0 | 0.00 | 0.00 | 0.00 | 94 | 975.8 |
| 20260502221118 | 73 | 225 | 0.0 | 0.0 | 0.00 | 0.00 | 0.00 | 95 | 975.7 |
| 20260502220614 | 73 | 226 | 0.0 | 0.0 | 0.00 | 0.00 | 0.00 | 95 | 975.4 |
| 20260502220110 | 73 | 215 | 0.0 | 0.0 | 0.00 | 0.00 | 0.00 | 92 | 975.5 |
| 20260502215608 | 73 | 205 | 0.0 | 0.0 | 0.00 | 0.00 | 0.00 | 92 | 975.3 |
| 20260502215104 | 74 | 195 | 0.0 | 0.0 | 0.00 | 0.00 | 0.00 | 92 | 975.3 |
| 20260502214601 | 74 | 192 | 0.0 | 0.0 | 0.00 | 0.00 | 0.00 | 91 | 975.3 |
| 20260502214059 | 74 | 179 | 0.0 | 0.0 | 0.00 | 0.00 | 0.00 | 91 | 975.4 |
| 20260502213555 | 74 | 148 | 0.0 | 0.0 | 0.00 | 0.00 | 0.00 | 91 | 975.2 |
| 20260502213053 | 74 | 203 | 0.0 | 0.0 | 0.00 | 0.00 | 0.00 | 91 | 975.3 |
| 20260502212552 | 74 | 199 | 0.0 | 0.0 | 0.00 | 0.00 | 0.00 | 92 | 975.2 |
| 20260502212049 | 74 | 198 | 0.0 | 0.0 | 0.00 | 0.00 | 0.00 | 92 | 975.3 |
| 20260502211545 | 74 | 194 | 0.0 | 0.0 | 0.00 | 0.00 | 0.00 | 92 | 975.1 |
| 20260502211042 | 74 | 181 | 0.0 | 0.0 | 0.00 | 0.00 | 0.00 | 92 | 975.1 |
| 20260502210539 | 73 | 216 | 0.0 | 0.0 | 0.00 | 0.00 | 0.00 | 92 | 975.0 |
| 20260502210036 | 74 | 222 | 0.0 | 0.0 | 0.00 | 0.00 | 0.00 | 92 | 975.1 |
| 20260502205533 | 74 | 224 | 0.0 | 0.0 | 0.00 | 0.00 | 0.00 | 91 | 975.2 |
| 20260502205030 | 74 | 224 | 0.0 | 0.0 | 0.00 | 0.00 | 0.00 | 91 | 974.8 |
| 20260502204527 | 74 | 224 | 0.0 | 0.0 | 0.00 | 0.00 | 0.00 | 91 | 974.8 |
| 20260502204025 | 74 | 224 | 0.0 | 0.0 | 0.00 | 0.00 | 0.00 | 90 | 974.8 |
| 20260502203521 | 74 | 224 | 0.0 | 0.0 | 0.00 | 0.00 | 0.00 | 90 | 974.8 |
| 20260502203018 | 74 | 224 | 0.0 | 0.0 | 0.00 | 0.00 | 0.00 | 89 | 974.6 |
| 20260502202514 | 74 | 224 | 0.0 | 0.0 | 0.00 | 0.00 | 0.00 | 89 | 974.7 |
| 20260502202013 | 74 | 224 | 0.0 | 0.0 | 0.00 | 0.00 | 0.00 | 89 | 974.7 |
| 20260502201508 | 74 | 224 | 0.0 | 0.0 | 0.00 | 0.00 | 0.00 | 89 | 974.9 |
| 20260502201005 | 74 | 228 | 0.0 | 0.0 | 0.00 | 0.00 | 0.00 | 89 | 974.9 |
| 20260502200501 | 74 | 229 | 0.0 | 0.0 | 0.00 | 0.00 | 0.00 | 90 | 974.7 |
| 20260502195959 | 74 | 225 | 0.0 | 0.0 | 0.00 | 0.00 | 0.00 | 90 | 974.8 |
| 20260502195456 | 74 | 232 | 0.0 | 0.0 | 0.00 | 0.00 | 0.00 | 90 | 974.7 |
| 20260502194952 | 75 | 223 | 0.0 | 0.0 | 0.00 | 0.00 | 0.00 | 90 | 974.6 |
| 20260502194449 | 75 | 223 | 0.0 | 0.0 | 0.00 | 0.00 | 0.00 | 89 | 975.0 |
| 20260502193944 | 75 | 221 | 0.0 | 0.0 | 0.00 | 0.00 | 0.00 | 88 | 974.9 |
| 20260502193442 | 75 | 221 | 0.0 | 0.0 | 0.00 | 0.00 | 0.00 | 86 | 974.9 |
| 20260502192938 | 75 | 203 | 0.0 | 0.0 | 0.00 | 0.00 | 0.00 | 86 | 974.8 |
| 20260502192435 | 75 | 202 | 0.0 | 0.0 | 0.00 | 0.00 | 0.00 | 86 | 974.8 |
| 20260502191932 | 75 | 199 | 0.0 | 0.0 | 0.00 | 0.00 | 0.00 | 86 | 974.6 |
| 20260502191430 | 75 | 199 | 0.0 | 0.0 | 0.00 | 0.00 | 0.00 | 86 | 974.9 |
| 20260502190927 | 75 | 199 | 0.0 | 0.0 | 0.00 | 0.00 | 0.00 | 85 | 974.9 |
| 20260502190424 | 76 | 199 | 0.0 | 0.0 | 0.00 | 0.00 | 0.00 | 85 | 975.0 |
| 20260502185920 | 76 | 201 | 0.0 | 0.0 | 0.00 | 0.00 | 0.00 | 85 | 974.9 |
| 20260502185415 | 76 | 201 | 0.0 | 0.0 | 0.00 | 0.00 | 0.00 | 85 | 975.0 |
| 20260502184913 | 76 | 201 | 0.0 | 0.0 | 0.00 | 0.00 | 0.00 | 85 | 975.3 |
| 20260502184409 | 76 | 201 | 0.0 | 0.0 | 0.00 | 0.00 | 0.00 | 85 | 975.0 |
| 20260502183905 | 76 | 206 | 0.0 | 0.0 | 0.00 | 0.00 | 0.00 | 84 | 975.1 |
| 20260502183401 | 76 | 193 | 0.0 | 0.0 | 0.00 | 0.00 | 0.00 | 84 | 975.3 |
| 20260502182856 | 76 | 193 | 0.0 | 0.0 | 0.00 | 0.00 | 0.00 | 84 | 974.8 |
| 20260502182352 | 76 | 214 | 0.0 | 0.0 | 0.00 | 0.00 | 0.00 | 83 | 975.3 |
| 20260502181849 | 76 | 214 | 0.0 | 0.0 | 0.00 | 0.00 | 0.00 | 83 | 975.3 |
| 20260502181348 | 76 | 213 | 0.0 | 0.0 | 0.00 | 0.00 | 0.00 | 84 | 975.2 |
| 20260502180845 | 76 | 214 | 0.0 | 0.0 | 0.00 | 0.00 | 0.00 | 83 | 975.2 |
| 20260502180342 | 76 | 210 | 0.0 | 0.0 | 0.00 | 0.00 | 0.00 | 83 | 975.3 |
| 20260502170301 | 77 | 225 | 0.0 | 0.0 | 0.00 | 0.00 | 0.00 | 81 | 975.2 |
| 20260502164249 | 77 | 228 | 0.0 | 0.0 | 0.00 | 0.00 | 0.00 | 80 | 975.4 |
| 20260502163744 | 78 | 16 | 0.0 | 2.0 | 0.00 | 0.00 | 0.00 | 78 | 975.6 |
| 20260502163241 | 78 | 75 | 2.0 | 3.0 | 0.00 | 0.00 | 0.00 | 77 | 975.3 |
| 20260502162738 | 78 | 131 | 1.0 | 5.0 | 0.00 | 0.00 | 0.00 | 77 | 975.3 |
| 20260502162234 | 78 | 121 | 3.0 | 5.0 | 0.00 | 0.00 | 0.00 | 77 | 975.3 |
| 20260502161732 | 78 | 95 | 0.0 | 5.0 | 0.00 | 0.00 | 0.00 | 78 | 975.3 |
| 20260502161228 | 78 | 192 | 0.0 | 1.0 | 0.00 | 0.00 | 0.00 | 78 | 975.4 |
| 20260502160726 | 78 | 90 | 1.0 | 5.0 | 0.00 | 0.00 | 0.00 | 78 | 975.3 |
| 20260502160225 | 78 | 122 | 0.0 | 5.0 | 0.00 | 0.00 | 0.00 | 78 | 975.2 |
| 20260502152149 | 79 | 125 | 0.0 | 0.0 | 0.00 | 0.00 | 0.00 | 75 | 974.8 |
| 20260502151647 | 79 | 145 | 0.0 | 0.0 | 0.00 | 0.00 | 0.00 | 75 | 974.4 |
| 20260502151144 | 79 | 172 | 0.0 | 0.0 | 0.00 | 0.00 | 0.00 | 75 | 974.6 |
| 20260502150641 | 79 | 162 | 0.0 | 1.0 | 0.00 | 0.00 | 0.00 | 74 | 974.4 |
| 20260502150137 | 79 | 197 | 0.0 | 0.0 | 0.00 | 0.00 | 0.00 | 74 | 974.6 |
| 20260502130526 | 85 | 222 | 0.0 | 0.0 | 0.00 | 0.00 | 0.00 | 64 | 973.2 |
| 20260502123509 | 85 | 220 | 0.0 | 0.0 | 0.00 | 0.00 | 0.00 | 65 | 972.6 |
| 20260502123005 | 85 | 221 | 0.0 | 0.0 | 0.00 | 0.00 | 0.00 | 67 | 972.4 |
| 20260502122502 | 85 | 222 | 0.0 | 0.0 | 0.00 | 0.00 | 0.00 | 64 | 972.5 |
| 20260502122000 | 86 | 221 | 0.0 | 0.0 | 0.00 | 0.00 | 0.00 | 62 | 972.1 |
| 20260502121456 | 86 | 222 | 0.0 | 0.0 | 0.00 | 0.00 | 0.00 | 61 | 972.0 |
| 20260502120954 | 86 | 215 | 0.0 | 0.0 | 0.00 | 0.00 | 0.00 | 61 | 971.7 |
| 20260502120450 | 86 | 203 | 0.0 | 0.0 | 0.00 | 0.00 | 0.00 | 62 | 971.9 |
| 20260502115445 | 86 | 200 | 0.0 | 0.0 | 0.00 | 0.00 | 0.00 | 60 | 971.8 |
| 20260502114941 | 87 | 221 | 0.0 | 0.0 | 0.00 | 0.00 | 0.00 | 61 | 971.7 |
| 20260502114438 | 87 | 222 | 0.0 | 0.0 | 0.00 | 0.00 | 0.00 | 61 | 971.8 |
| 20260502113935 | 87 | 222 | 0.0 | 0.0 | 0.00 | 0.00 | 0.00 | 60 | 971.5 |
| 20260502113432 | 88 | 222 | 0.0 | 0.0 | 0.00 | 0.00 | 0.00 | 58 | 971.5 |
| 20260502112931 | 88 | 222 | 0.0 | 0.0 | 0.00 | 0.00 | 0.00 | 57 | 971.4 |
| 20260502112428 | 88 | 222 | 0.0 | 0.0 | 0.00 | 0.00 | 0.00 | 57 | 971.5 |
| 20260502111925 | 89 | 222 | 0.0 | 0.0 | 0.00 | 0.00 | 0.00 | 56 | 971.3 |
| 20260502111422 | 89 | 222 | 0.0 | 0.0 | 0.00 | 0.00 | 0.00 | 56 | 971.3 |
| 20260502110920 | 89 | 222 | 0.0 | 0.0 | 0.00 | 0.00 | 0.00 | 55 | 971.3 |
| 20260502110418 | 90 | 220 | 0.0 | 0.0 | 0.00 | 0.00 | 0.00 | 55 | 971.1 |
| 20260502105914 | 90 | 232 | 0.0 | 0.0 | 0.00 | 0.00 | 0.00 | 55 | 971.2 |
| 20260502105412 | 90 | 216 | 0.0 | 0.0 | 0.00 | 0.00 | 0.00 | 55 | 971.3 |
| 20260502104910 | 91 | 222 | 0.0 | 0.0 | 0.00 | 0.00 | 0.00 | 54 | 971.1 |
| 20260502104407 | 91 | 216 | 0.0 | 0.0 | 0.00 | 0.00 | 0.00 | 53 | 971.0 |
| 20260502103904 | 91 | 212 | 0.0 | 0.0 | 0.00 | 0.00 | 0.00 | 52 | 971.0 |
| 20260502103402 | 91 | 218 | 0.0 | 0.0 | 0.00 | 0.00 | 0.00 | 53 | 971.0 |
| 20260502102858 | 91 | 220 | 0.0 | 0.0 | 0.00 | 0.00 | 0.00 | 51 | 971.1 |
| 20260502102355 | 92 | 207 | 0.0 | 0.0 | 0.00 | 0.00 | 0.00 | 51 | 971.0 |
| 20260502101852 | 92 | 210 | 0.0 | 0.0 | 0.00 | 0.00 | 0.00 | 51 | 970.9 |
| 20260502101350 | 92 | 211 | 0.0 | 0.0 | 0.00 | 0.00 | 0.00 | 51 | 970.7 |
| 20260502100848 | 93 | 211 | 0.0 | 0.0 | 0.00 | 0.00 | 0.00 | 50 | 970.8 |
| 20260502100347 | 93 | 194 | 0.0 | 0.0 | 0.00 | 0.00 | 0.00 | 50 | 970.8 |
| 20260502091321 | 95 | 205 | 0.0 | 0.0 | 0.00 | 0.00 | 0.00 | 48 | 971.2 |
| 20260502090819 | 96 | 212 | 0.0 | 0.0 | 0.00 | 0.00 | 0.00 | 46 | 971.2 |
| 20260502090315 | 96 | 219 | 0.0 | 0.0 | 0.00 | 0.00 | 0.00 | 45 | 971.1 |
| 20260502071210 | 92 | 244 | 0.0 | 0.0 | 0.00 | 0.00 | 0.00 | 55 | 973.0 |
| 20260502070709 | 93 | 225 | 0.0 | 0.0 | 0.00 | 0.00 | 0.00 | 55 | 972.9 |
| 20260502070206 | 93 | 211 | 0.0 | 0.0 | 0.00 | 0.00 | 0.00 | 53 | 973.0 |
| 20260502065704 | 92 | 240 | 0.0 | 0.0 | 0.00 | 0.00 | 0.00 | 54 | 973.2 |
| 20260502065201 | 93 | 241 | 0.0 | 0.0 | 0.00 | 0.00 | 0.00 | 55 | 973.5 |
| 20260502064700 | 94 | 241 | 0.0 | 0.0 | 0.00 | 0.00 | 0.00 | 53 | 973.6 |
| 20260502064156 | 93 | 227 | 0.0 | 0.0 | 0.00 | 0.00 | 0.00 | 56 | 973.8 |
| 20260502063655 | 93 | 213 | 0.0 | 0.0 | 0.00 | 0.00 | 0.00 | 57 | 973.7 |
| 20260502063152 | 93 | 207 | 0.0 | 0.0 | 0.00 | 0.00 | 0.00 | 56 | 974.0 |
| 20260502062649 | 93 | 188 | 0.0 | 0.0 | 0.00 | 0.00 | 0.00 | 56 | 974.2 |
| 20260502062147 | 93 | 214 | 0.0 | 0.0 | 0.00 | 0.00 | 0.00 | 57 | 974.1 |
| 20260502061645 | 93 | 251 | 0.0 | 1.0 | 0.00 | 0.00 | 0.00 | 55 | 974.2 |
| 20260502061143 | 94 | 222 | 0.0 | 1.0 | 0.00 | 0.00 | 0.00 | 54 | 974.4 |
| 20260502060642 | 94 | 248 | 0.0 | 0.0 | 0.00 | 0.00 | 0.00 | 52 | 974.4 |
| 20260502060139 | 94 | 217 | 0.0 | 1.0 | 0.00 | 0.00 | 0.00 | 52 | 974.6 |
| 20260502055637 | 93 | 220 | 0.0 | 0.0 | 0.00 | 0.00 | 0.00 | 56 | 974.7 |
| 20260502055135 | 94 | 194 | 0.0 | 0.0 | 0.00 | 0.00 | 0.00 | 55 | 974.8 |
| 20260502054634 | 94 | 196 | 0.0 | 0.0 | 0.00 | 0.00 | 0.00 | 51 | 975.0 |
| 20260502054130 | 95 | 207 | 0.0 | 0.0 | 0.00 | 0.00 | 0.00 | 52 | 974.9 |
| 20260502053628 | 95 | 222 | 0.0 | 0.0 | 0.00 | 0.00 | 0.00 | 52 | 975.0 |
| 20260502053125 | 93 | 206 | 0.0 | 1.0 | 0.00 | 0.00 | 0.00 | 55 | 975.0 |
| 20260502052623 | 93 | 203 | 0.0 | 0.0 | 0.00 | 0.00 | 0.00 | 54 | 975.2 |
| 20260502052121 | 93 | 205 | 0.0 | 1.0 | 0.00 | 0.00 | 0.00 | 57 | 975.3 |
| 20260502051619 | 92 | 190 | 0.0 | 1.0 | 0.00 | 0.00 | 0.00 | 57 | 975.3 |
| 20260502051117 | 92 | 235 | 0.0 | 2.0 | 0.00 | 0.00 | 0.00 | 61 | 975.5 |
| 20260502050613 | 91 | 225 | 0.0 | 0.0 | 0.00 | 0.00 | 0.00 | 61 | 975.5 |
| 20260502050110 | 91 | 198 | 0.0 | 1.0 | 0.00 | 0.00 | 0.00 | 59 | 975.5 |
| 20260502045606 | 91 | 216 | 0.0 | 1.0 | 0.00 | 0.00 | 0.00 | 58 | 975.5 |
| 20260502045104 | 91 | 209 | 0.0 | 0.0 | 0.00 | 0.00 | 0.00 | 61 | 975.7 |
| 20260502044600 | 91 | 101 | 0.0 | 1.0 | 0.00 | 0.00 | 0.00 | 57 | 975.9 |
| 20260502044057 | 93 | 228 | 0.0 | 0.0 | 0.00 | 0.00 | 0.00 | 58 | 975.8 |
| 20260502043554 | 93 | 236 | 0.0 | 1.0 | 0.00 | 0.00 | 0.00 | 56 | 976.0 |
| 20260502043050 | 92 | 217 | 1.0 | 1.0 | 0.00 | 0.00 | 0.00 | 56 | 976.2 |
| 20260502042545 | 91 | 212 | 0.0 | 1.0 | 0.00 | 0.00 | 0.00 | 60 | 975.9 |
| 20260502042043 | 91 | 230 | 0.0 | 0.0 | 0.00 | 0.00 | 0.00 | 63 | 976.1 |
| 20260502041540 | 91 | 202 | 0.0 | 0.0 | 0.00 | 0.00 | 0.00 | 58 | 976.3 |
| 20260502041037 | 92 | 263 | 0.0 | 2.0 | 0.00 | 0.00 | 0.00 | 62 | 976.2 |
| 20260502040533 | 93 | 255 | 0.0 | 0.0 | 0.00 | 0.00 | 0.00 | 58 | 976.6 |
| 20260502040031 | 93 | 184 | 0.0 | 0.0 | 0.00 | 0.00 | 0.00 | 60 | 976.5 |
| 20260502035527 | 92 | 211 | 0.0 | 1.0 | 0.00 | 0.00 | 0.00 | 61 | 976.3 |
| 20260502035025 | 91 | 224 | 0.0 | 0.0 | 0.00 | 0.00 | 0.00 | 63 | 976.5 |
| 20260502034523 | 91 | 217 | 0.0 | 0.0 | 0.00 | 0.00 | 0.00 | 61 | 976.7 |
| 20260502034021 | 91 | 186 | 0.0 | 1.0 | 0.00 | 0.00 | 0.00 | 64 | 976.7 |
| 20260502033518 | 90 | 234 | 0.0 | 1.0 | 0.00 | 0.00 | 0.00 | 66 | 976.7 |
| 20260502033015 | 89 | 218 | 0.0 | 1.0 | 0.00 | 0.00 | 0.00 | 65 | 976.6 |
| 20260502032511 | 89 | 208 | 0.0 | 0.0 | 0.00 | 0.00 | 0.00 | 65 | 976.7 |
| 20260502032008 | 89 | 195 | 0.0 | 0.0 | 0.00 | 0.00 | 0.00 | 64 | 976.6 |
| 20260502031506 | 90 | 196 | 0.0 | 1.0 | 0.00 | 0.00 | 0.00 | 64 | 976.9 |
| 20260502031004 | 90 | 201 | 0.0 | 1.0 | 0.00 | 0.00 | 0.00 | 66 | 976.9 |
| 20260502030502 | 90 | 242 | 1.0 | 1.0 | 0.00 | 0.00 | 0.00 | 68 | 976.9 |
| 20260502030000 | 88 | 225 | 0.0 | 0.0 | 0.00 | 0.00 | 0.00 | 67 | 977.0 |
| 20260502025457 | 87 | 197 | 0.0 | 1.0 | 0.00 | 0.00 | 0.00 | 68 | 977.0 |
| 20260502024954 | 88 | 194 | 0.0 | 0.0 | 0.00 | 0.00 | 0.00 | 68 | 976.9 |
| 20260502024452 | 88 | 224 | 0.0 | 1.0 | 0.00 | 0.00 | 0.00 | 71 | 976.8 |
| 20260502023950 | 88 | 221 | 0.0 | 0.0 | 0.00 | 0.00 | 0.00 | 68 | 976.9 |
| 20260502023447 | 87 | 221 | 0.0 | 0.0 | 0.00 | 0.00 | 0.00 | 71 | 977.0 |
| 20260502022945 | 86 | 199 | 0.0 | 0.0 | 0.00 | 0.00 | 0.00 | 71 | 976.7 |
| 20260502022441 | 85 | 224 | 0.0 | 0.0 | 0.00 | 0.00 | 0.00 | 74 | 977.0 |
| 20260502021938 | 85 | 222 | 0.0 | 0.0 | 0.00 | 0.00 | 0.00 | 74 | 976.8 |
| 20260502021436 | 83 | 191 | 0.0 | 0.0 | 0.00 | 0.00 | 0.00 | 76 | 977.0 |
| 20260502020933 | 83 | 218 | 0.0 | 0.0 | 0.00 | 0.00 | 0.00 | 76 | 977.1 |
| 20260502020431 | 83 | 213 | 0.0 | 1.0 | 0.00 | 0.00 | 0.00 | 78 | 976.9 |
| 20260502015927 | 83 | 205 | 0.0 | 0.0 | 0.00 | 0.00 | 0.00 | 78 | 977.0 |
| 20260502015425 | 83 | 221 | 0.0 | 0.0 | 0.00 | 0.00 | 0.00 | 77 | 976.9 |
| 20260502014921 | 84 | 219 | 0.0 | 1.0 | 0.00 | 0.00 | 0.00 | 77 | 976.7 |
| 20260502014419 | 83 | 201 | 0.0 | 1.0 | 0.00 | 0.00 | 0.00 | 76 | 976.7 |
| 20260502013915 | 82 | 207 | 0.0 | 1.0 | 0.00 | 0.00 | 0.00 | 78 | 976.7 |
| 20260502013410 | 82 | 224 | 0.0 | 0.0 | 0.00 | 0.00 | 0.00 | 78 | 976.6 |
| 20260502012907 | 82 | 230 | 0.0 | 1.0 | 0.00 | 0.00 | 0.00 | 78 | 976.6 |
| 20260502012405 | 82 | 214 | 0.0 | 1.0 | 0.00 | 0.00 | 0.00 | 78 | 976.5 |
| 20260502011902 | 81 | 212 | 0.0 | 0.0 | 0.00 | 0.00 | 0.00 | 81 | 976.3 |
| 20260502011358 | 80 | 196 | 0.0 | 1.0 | 0.00 | 0.00 | 0.00 | 81 | 976.5 |
| 20260502010855 | 80 | 201 | 0.0 | 0.0 | 0.00 | 0.00 | 0.00 | 83 | 976.3 |
| 20260502010352 | 80 | 201 | 0.0 | 0.0 | 0.00 | 0.00 | 0.00 | 84 | 976.1 |
| 20260502005848 | 80 | 213 | 0.0 | 0.0 | 0.00 | 0.00 | 0.00 | 85 | 976.3 |
| 20260502005347 | 80 | 212 | 0.0 | 0.0 | 0.00 | 0.00 | 0.00 | 85 | 976.1 |
| 20260502004844 | 79 | 206 | 0.0 | 0.0 | 0.00 | 0.00 | 0.00 | 87 | 976.1 |
| 20260502004340 | 79 | 213 | 0.0 | 0.0 | 0.00 | 0.00 | 0.00 | 88 | 976.1 |
| 20260502003838 | 78 | 212 | 0.0 | 0.0 | 0.00 | 0.00 | 0.00 | 88 | 976.2 |
| 20260502003334 | 78 | 217 | 0.0 | 0.0 | 0.00 | 0.00 | 0.00 | 89 | 976.1 |
| 20260502002831 | 77 | 212 | 0.0 | 0.0 | 0.00 | 0.00 | 0.00 | 91 | 976.0 |
| 20260502002328 | 76 | 218 | 0.0 | 0.0 | 0.00 | 0.00 | 0.00 | 91 | 975.8 |
| 20260502001825 | 76 | 213 | 0.0 | 0.0 | 0.00 | 0.00 | 0.00 | 92 | 975.8 |
| 20260502001323 | 76 | 214 | 0.0 | 0.0 | 0.00 | 0.00 | 0.00 | 92 | 975.9 |
| 20260502000820 | 76 | 207 | 0.0 | 0.0 | 0.00 | 0.00 | 0.00 | 92 | 975.7 |
| 20260502000318 | 75 | 205 | 0.0 | 0.0 | 0.00 | 0.00 | 0.00 | 93 | 975.7 |
| 20260501235814 | 74 | 217 | 0.0 | 0.0 | 0.00 | 0.00 | 0.00 | 94 | 975.5 |
| 20260501235310 | 74 | 217 | 0.0 | 0.0 | 0.00 | 0.00 | 0.00 | 94 | 975.5 |
| 20260501234805 | 74 | 217 | 0.0 | 0.0 | 0.00 | 0.00 | 0.00 | 96 | 975.5 |